Location: Clanezzo
(45.7500°N, 9.6000°E)
Time: 04:24:52
(UTC+00:00)

Cosmos 1943 Rocket - Pass Details

Date: 12 May 2021
Orbit: 814 x 842 km, 71.0° (Epoch: 18 June)

Event Time Altitude Azimuth Distance (km) Brightness Sun altitude
Exits shadow 20:12:58 10° 94° (E) 2,449 4.2 -13.4°
Drops below altitude 10° 20:13:01 10° 94° (E) 2,449 4.2 -13.4°
Sets 20:18:42 0° 48° (NE) 3,381 5.3 -14.1°
